SAS954 KMCO-ENGM

Flight info

Callsign SAS954
Flight time N/A
Altitude 37000
Route JEEMY4 PAINN SHRKS KJ06S TEEEM Q99 RAANE FEDOX SANNY MAULS PLDGE LOYDD OGESY Q227 STUBN TYROD SYR Q844 VIBRU REEDO IKLAX KEMVI Q852 DICEN ANCER N817A IRLOK 5550N 5640N 5630N 5620N PIKIL SOVED MIMKU ROBBO ALOTI UBEDA PIPEX M609 RIPAM
Aircraft A359/H-SDE2E3GHIJ3J4J5LM1ORWXY/LB1D1

Departure

Time 2026-04-25 12:11
Airport Orlando International Airport (KMCO)

Arrival

Time N/A
Airport Oslo-Gardermoen International Airport (ENGM)
Time Latitude Longitude Altitude Speed Heading
2026-04-25 11:24 28.42785 -81.29989 107 ft 0 kts 306°
2026-04-25 11:44 28.42772 -81.29965 106 ft 4 kts 291°
2026-04-25 11:44 28.42767 -81.29936 106 ft 4 kts 263°
2026-04-25 11:44 28.42775 -81.29909 107 ft 4 kts 229°
2026-04-25 11:44 28.42796 -81.29891 106 ft 4 kts 203°
2026-04-25 11:45 28.42820 -81.29883 108 ft 2 kts 180°
2026-04-25 11:45 28.42821 -81.29883 106 ft 0 kts 180°
2026-04-25 11:48 28.42820 -81.29883 106 ft 1 kts 180°
2026-04-25 11:48 28.42801 -81.29883 106 ft 5 kts 180°
2026-04-25 11:48 28.42753 -81.29882 107 ft 9 kts 178°
2026-04-25 11:48 28.42681 -81.29881 107 ft 12 kts 181°
2026-04-25 11:49 28.42611 -81.29864 108 ft 0 kts 137°
2026-04-25 11:50 28.42610 -81.29863 108 ft 1 kts 133°
2026-04-25 11:50 28.42602 -81.29840 106 ft 6 kts 114°
2026-04-25 11:50 28.42558 -81.29795 107 ft 11 kts 158°
2026-04-25 11:50 28.42477 -81.29793 108 ft 12 kts 181°
2026-04-25 11:51 28.42387 -81.29795 108 ft 14 kts 180°
2026-04-25 11:51 28.42296 -81.29812 107 ft 13 kts 220°
2026-04-25 11:51 28.42280 -81.29899 111 ft 12 kts 270°
2026-04-25 11:51 28.42280 -81.30014 110 ft 18 kts 269°
2026-04-25 11:52 28.42277 -81.30190 108 ft 26 kts 269°
2026-04-25 11:52 28.42274 -81.30405 107 ft 28 kts 265°
2026-04-25 11:52 28.42258 -81.30614 108 ft 26 kts 264°
2026-04-25 11:52 28.42243 -81.30819 106 ft 26 kts 265°
2026-04-25 11:53 28.42235 -81.31029 105 ft 27 kts 275°
2026-04-25 11:53 28.42257 -81.31187 106 ft 0 kts 280°
2026-04-25 11:54 28.42258 -81.31190 104 ft 2 kts 280°
2026-04-25 11:54 28.42262 -81.31223 106 ft 10 kts 277°
2026-04-25 11:54 28.42264 -81.31552 108 ft 25 kts 271°
2026-04-25 11:55 28.42267 -81.31742 111 ft 19 kts 269°
2026-04-25 11:55 28.42323 -81.31832 110 ft 14 kts 355°
2026-04-25 11:55 28.42428 -81.31831 111 ft 16 kts
2026-04-25 11:55 28.42542 -81.31829 112 ft 17 kts
2026-04-25 11:56 28.42662 -81.31834 112 ft 19 kts 359°
2026-04-25 11:56 28.42813 -81.31837 109 ft 24 kts 360°
2026-04-25 11:56 28.42986 -81.31838 107 ft 26 kts 359°
2026-04-25 11:56 28.43165 -81.31837 107 ft 26 kts
2026-04-25 11:57 28.43351 -81.31842 105 ft 27 kts 358°
2026-04-25 11:57 28.43535 -81.31845 110 ft 26 kts 359°
2026-04-25 11:57 28.43715 -81.31847 111 ft 26 kts 360°
2026-04-25 11:57 28.43896 -81.31849 113 ft 25 kts 356°
2026-04-25 11:58 28.44061 -81.31895 112 ft 25 kts 347°
2026-04-25 11:58 28.44240 -81.31900 111 ft 26 kts 359°
2026-04-25 11:58 28.44411 -81.31903 111 ft 23 kts 359°
2026-04-25 11:58 28.44525 -81.31904 108 ft 0 kts 360°
2026-04-25 11:59 28.44526 -81.31904 108 ft 1 kts 360°
2026-04-25 11:59 28.44577 -81.31904 107 ft 13 kts
2026-04-25 11:59 28.44681 -81.31909 105 ft 12 kts 347°
2026-04-25 12:00 28.44716 -81.32069 107 ft 11 kts 268°
2026-04-25 12:00 28.44715 -81.32094 106 ft 1 kts 269°
2026-04-25 12:00 28.44715 -81.32112 106 ft 0 kts 270°
2026-04-25 12:09 28.44714 -81.32134 106 ft 8 kts 268°
2026-04-25 12:09 28.44685 -81.32215 106 ft 14 kts 210°
2026-04-25 12:09 28.44619 -81.32227 109 ft 0 kts 179°
2026-04-25 12:10 28.44613 -81.32227 107 ft 7 kts 179°
2026-04-25 12:11 28.44358 -81.32225 111 ft 68 kts 179°
2026-04-25 12:11 28.43683 -81.32218 112 ft 125 kts 179°
2026-04-25 12:11 28.42640 -81.32206 129 ft 171 kts 179°
2026-04-25 12:11 28.41458 -81.32199 730 ft 168 kts 181°
2026-04-25 12:12 28.40309 -81.32290 1382 ft 167 kts 192°
2026-04-25 12:12 28.39541 -81.32512 1591 ft 177 kts 201°
2026-04-25 12:12 28.37938 -81.33354 1866 ft 206 kts 210°
2026-04-25 12:12 28.36609 -81.34152 2098 ft 228 kts 210°
2026-04-25 12:13 28.35197 -81.35147 2410 ft 247 kts 223°
2026-04-25 12:13 28.33999 -81.36597 2921 ft 256 kts 232°
2026-04-25 12:13 28.32863 -81.38165 3505 ft 262 kts 232°
2026-04-25 12:13 28.31699 -81.39777 4132 ft 266 kts 232°
2026-04-25 12:14 28.30772 -81.41584 4816 ft 267 kts 255°
2026-04-25 12:14 28.30371 -81.43655 5418 ft 271 kts 263°
2026-04-25 12:14 28.30085 -81.45798 6081 ft 274 kts 264°
2026-04-25 12:14 28.29813 -81.47915 6651 ft 276 kts 264°
2026-04-25 12:15 28.29601 -81.50076 6941 ft 275 kts 273°
2026-04-25 12:15 28.30091 -81.52133 6997 ft 271 kts 303°
2026-04-25 12:15 28.31344 -81.53716 6993 ft 271 kts 322°
2026-04-25 12:15 28.32835 -81.55061 6988 ft 275 kts 326°
2026-04-25 12:16 28.33954 -81.55735 7028 ft 274 kts 343°
2026-04-25 12:16 28.36453 -81.56299 7468 ft 280 kts 354°
2026-04-25 12:16 28.37771 -81.56494 7948 ft 281 kts 354°
2026-04-25 12:16 28.39688 -81.56760 8766 ft 280 kts 354°
2026-04-25 12:17 28.41628 -81.57014 9544 ft 281 kts 354°
2026-04-25 12:17 28.43593 -81.57257 10215 ft 285 kts 354°
2026-04-25 12:17 28.45626 -81.57500 10518 ft 302 kts 354°
2026-04-25 12:17 28.47758 -81.57584 10830 ft 319 kts
2026-04-25 12:18 28.49993 -81.57080 11141 ft 336 kts 15°
2026-04-25 12:18 28.52296 -81.56308 11407 ft 352 kts 17°
2026-04-25 12:18 28.54685 -81.55474 11690 ft 365 kts 17°
2026-04-25 12:18 28.57152 -81.54611 12150 ft 372 kts 16°
2026-04-25 12:19 28.61308 -81.53153 13065 ft 378 kts 16°
2026-04-25 12:19 28.64672 -81.51970 13794 ft 382 kts 16°
2026-04-25 12:19 28.67226 -81.51070 14266 ft 386 kts 16°
2026-04-25 12:20 28.69810 -81.50158 14723 ft 389 kts 16°
2026-04-25 12:20 28.72383 -81.49250 15160 ft 393 kts 16°
2026-04-25 12:20 28.75005 -81.48324 15619 ft 396 kts 16°
2026-04-25 12:20 28.77647 -81.47390 16108 ft 399 kts 16°
2026-04-25 12:21 28.80316 -81.46445 16559 ft 402 kts 16°
2026-04-25 12:21 28.82997 -81.45496 17030 ft 406 kts 16°
2026-04-25 12:21 28.85720 -81.44532 17521 ft 409 kts 16°
2026-04-25 12:21 28.88420 -81.43575 17995 ft 412 kts 16°
2026-04-25 12:22 28.91180 -81.42597 18448 ft 415 kts 16°
2026-04-25 12:22 28.93967 -81.41678 18870 ft 417 kts 12°
2026-04-25 12:22 28.96855 -81.41372 19309 ft 415 kts 357°
2026-04-25 12:22 28.99698 -81.41609 19830 ft 415 kts 354°
2026-04-25 12:23 29.02586 -81.41933 20273 ft 418 kts 354°
2026-04-25 12:23 29.05498 -81.42266 20723 ft 421 kts 354°
2026-04-25 12:23 29.08421 -81.42597 21166 ft 423 kts 354°
2026-04-25 12:23 29.11375 -81.42925 21629 ft 426 kts 354°
2026-04-25 12:24 29.14342 -81.43212 22081 ft 429 kts 355°
2026-04-25 12:24 29.17286 -81.43483 22533 ft 431 kts 355°
2026-04-25 12:24 29.20284 -81.43760 23005 ft 434 kts 355°
2026-04-25 12:24 29.23326 -81.44045 23477 ft 437 kts 354°
2026-04-25 12:25 29.26367 -81.44331 23869 ft 440 kts 354°
2026-04-25 12:25 29.29432 -81.44621 24249 ft 443 kts 355°
2026-04-25 12:25 29.32509 -81.44913 24642 ft 445 kts 355°
2026-04-25 12:25 29.35578 -81.45204 25057 ft 447 kts 355°
2026-04-25 12:26 29.38699 -81.45501 25466 ft 450 kts 355°
2026-04-25 12:26 29.41830 -81.45799 25850 ft 452 kts 355°
2026-04-25 12:26 29.44971 -81.46098 26243 ft 454 kts 355°
2026-04-25 12:26 29.48129 -81.46399 26638 ft 456 kts 355°
2026-04-25 12:27 29.51313 -81.46703 27020 ft 459 kts 356°
2026-04-25 12:27 29.54462 -81.47003 27395 ft 461 kts 356°
2026-04-25 12:27 29.57667 -81.47309 27763 ft 463 kts 356°
2026-04-25 12:27 29.60904 -81.47613 28132 ft 465 kts 356°
2026-04-25 12:28 29.64137 -81.47903 28497 ft 467 kts 356°
2026-04-25 12:28 29.67390 -81.48194 28857 ft 469 kts 356°
2026-04-25 12:28 29.70612 -81.48484 29169 ft 471 kts 356°
2026-04-25 12:28 29.73893 -81.48780 29514 ft 473 kts 357°
2026-04-25 12:29 29.77188 -81.49078 29841 ft 475 kts 357°
2026-04-25 12:29 29.80487 -81.49377 30125 ft 477 kts 357°
2026-04-25 12:29 29.83814 -81.49680 30371 ft 479 kts 357°
2026-04-25 12:29 29.87142 -81.49982 30603 ft 481 kts 357°
2026-04-25 12:30 29.90485 -81.50283 30931 ft 480 kts 357°
2026-04-25 12:30 29.93767 -81.50698 31247 ft 480 kts 353°
2026-04-25 12:30 29.97046 -81.51400 31544 ft 479 kts 348°
2026-04-25 12:30 30.00275 -81.52365 31902 ft 478 kts 346°
2026-04-25 12:31 30.03465 -81.53439 32209 ft 478 kts 345°
2026-04-25 12:31 30.06635 -81.54593 32484 ft 477 kts 344°
2026-04-25 12:31 30.09788 -81.55795 32763 ft 477 kts 343°
2026-04-25 12:31 30.12928 -81.57020 33042 ft 477 kts 343°
2026-04-25 12:32 30.16073 -81.58255 33357 ft 475 kts 343°
2026-04-25 12:32 30.19210 -81.59485 33660 ft 474 kts 343°
2026-04-25 12:32 30.22335 -81.60706 33910 ft 474 kts 343°
2026-04-25 12:32 30.25465 -81.61926 34127 ft 474 kts 343°
2026-04-25 12:33 30.28551 -81.63126 34363 ft 473 kts 343°
2026-04-25 12:33 30.31664 -81.64336 34607 ft 471 kts 343°
2026-04-25 12:33 30.34772 -81.65545 34842 ft 470 kts 343°
2026-04-25 12:33 30.37873 -81.66750 34945 ft 471 kts 343°
2026-04-25 12:34 30.40985 -81.67960 34960 ft 472 kts 343°
2026-04-25 12:34 30.47218 -81.70392 34962 ft 471 kts 343°
2026-04-25 12:35 30.53446 -81.72829 34965 ft 471 kts 343°
2026-04-25 12:35 30.59626 -81.75250 34963 ft 471 kts 343°
2026-04-25 12:36 30.65647 -81.78357 34970 ft 473 kts 335°
2026-04-25 12:36 30.71485 -81.81901 34973 ft 472 kts 334°
2026-04-25 12:37 30.77280 -81.85504 34976 ft 472 kts 334°
2026-04-25 12:37 30.83060 -81.89103 34967 ft 472 kts 334°
2026-04-25 12:38 30.88861 -81.92708 34967 ft 472 kts 334°
2026-04-25 12:38 30.94621 -81.96276 34972 ft 472 kts 335°
2026-04-25 12:39 31.00764 -81.98808 35034 ft 466 kts 351°
2026-04-25 12:39 31.03983 -81.99236 35220 ft 466 kts
2026-04-25 12:39 31.07222 -81.99192 35401 ft 465 kts
2026-04-25 12:39 31.10450 -81.99009 35591 ft 465 kts
2026-04-25 12:40 31.13689 -81.98764 35781 ft 464 kts
2026-04-25 12:40 31.16907 -81.98497 35976 ft 463 kts
2026-04-25 12:40 31.20116 -81.98230 36177 ft 462 kts
2026-04-25 12:40 31.23325 -81.97970 36386 ft 461 kts
2026-04-25 12:41 31.26529 -81.97719 36509 ft 461 kts
2026-04-25 12:41 31.29749 -81.97474 36624 ft 462 kts
2026-04-25 12:41 31.32965 -81.97233 36737 ft 463 kts
2026-04-25 12:41 31.36144 -81.96997 36838 ft 464 kts
2026-04-25 12:42 31.39365 -81.96757 36938 ft 464 kts
2026-04-25 12:42 31.45858 -81.96272 36986 ft 468 kts
2026-04-25 12:43 31.52381 -81.95783 36989 ft 468 kts
2026-04-25 12:43 31.62108 -81.95052 36990 ft 469 kts
2026-04-25 12:44 31.68621 -81.94562 36958 ft 469 kts
2026-04-25 12:45 31.78367 -81.93828 36958 ft 469 kts
2026-04-25 12:45 31.88163 -81.93089 36954 ft 470 kts
2026-04-25 12:46 31.94709 -81.92593 36951 ft 470 kts
2026-04-25 12:46 32.01216 -81.92100 36951 ft 471 kts
2026-04-25 12:47 32.07771 -81.91602 36952 ft 471 kts
2026-04-25 12:47 32.14229 -81.90571 36956 ft 471 kts 15°
2026-04-25 12:48 32.20302 -81.87712 36948 ft 474 kts 25°
2026-04-25 12:48 32.26257 -81.84253 36952 ft 477 kts 26°
2026-04-25 12:49 32.32200 -81.80701 36950 ft 478 kts 26°
2026-04-25 12:49 32.38112 -81.77190 36928 ft 478 kts 26°
2026-04-25 12:50 32.44089 -81.73663 36923 ft 480 kts 26°
2026-04-25 12:50 32.50051 -81.70145 36925 ft 480 kts 26°
2026-04-25 12:51 32.56049 -81.66601 36925 ft 480 kts 26°
2026-04-25 12:51 32.62027 -81.63062 36952 ft 478 kts 26°
2026-04-25 12:52 32.67961 -81.59543 36953 ft 479 kts 26°
2026-04-25 12:52 32.73926 -81.56000 36936 ft 479 kts 26°
2026-04-25 12:53 32.79899 -81.52449 36932 ft 479 kts 26°
2026-04-25 12:53 32.85841 -81.48910 36933 ft 479 kts 26°
2026-04-25 12:54 32.91817 -81.45345 36935 ft 480 kts 26°
2026-04-25 12:54 32.97778 -81.41785 36934 ft 480 kts 26°
2026-04-25 12:55 33.02765 -81.38803 36933 ft 480 kts 26°
2026-04-25 12:55 33.09727 -81.34631 36940 ft 480 kts 26°
2026-04-25 12:56 33.15703 -81.31044 36942 ft 481 kts 26°
2026-04-25 12:56 33.21644 -81.27472 36944 ft 480 kts 26°
2026-04-25 12:57 33.27626 -81.23872 36943 ft 479 kts 26°
2026-04-25 12:57 33.33551 -81.20299 36939 ft 478 kts 26°
2026-04-25 12:58 33.39502 -81.16706 36922 ft 479 kts 26°
2026-04-25 12:58 33.45476 -81.13098 36914 ft 480 kts 26°
2026-04-25 12:59 33.51419 -81.09498 36907 ft 480 kts 27°
2026-04-25 12:59 33.57391 -81.05873 36906 ft 480 kts 27°
2026-04-25 13:00 33.61355 -81.03465 36905 ft 480 kts 27°
2026-04-25 13:00 33.69313 -80.98624 36908 ft 481 kts 27°
2026-04-25 13:01 33.75301 -80.94975 36908 ft 482 kts 27°
2026-04-25 13:01 33.81239 -80.91351 36903 ft 482 kts 27°
2026-04-25 13:02 33.86980 -80.87179 36888 ft 480 kts 36°
2026-04-25 13:02 33.91426 -80.83147 36895 ft 483 kts 38°
2026-04-25 13:03 33.97627 -80.77315 36895 ft 485 kts 38°
2026-04-25 13:03 34.02043 -80.73140 36895 ft 485 kts 38°
2026-04-25 13:04 34.07373 -80.68110 36901 ft 485 kts 38°
2026-04-25 13:04 34.12664 -80.63120 36905 ft 485 kts 38°
2026-04-25 13:05 34.18015 -80.58071 36942 ft 488 kts 38°
2026-04-25 13:05 34.23364 -80.53015 36945 ft 488 kts 38°
2026-04-25 13:06 34.28689 -80.47999 36944 ft 487 kts 38°
2026-04-25 13:06 34.34084 -80.43038 36939 ft 486 kts 37°
2026-04-25 13:07 34.39489 -80.38079 36936 ft 487 kts 37°
2026-04-25 13:07 34.44869 -80.33120 36925 ft 489 kts 37°
2026-04-25 13:08 34.50293 -80.28095 36928 ft 489 kts 37°
2026-04-25 13:08 34.55673 -80.23101 36926 ft 489 kts 37°
2026-04-25 13:09 34.61086 -80.18070 36929 ft 489 kts 37°
2026-04-25 13:09 34.66519 -80.13013 36924 ft 494 kts 37°
2026-04-25 13:10 34.72005 -80.07898 36922 ft 498 kts 37°
2026-04-25 13:10 34.77496 -80.02785 36924 ft 501 kts 37°
2026-04-25 13:11 34.83056 -79.97622 36923 ft 502 kts 37°
2026-04-25 13:11 34.88697 -79.92636 36932 ft 504 kts 35°
2026-04-25 13:12 34.94409 -79.87655 36932 ft 505 kts 35°
2026-04-25 13:12 34.99160 -79.83479 36931 ft 506 kts 36°
2026-04-25 13:13 35.05823 -79.77579 36928 ft 506 kts 36°
2026-04-25 13:13 35.11559 -79.72599 36916 ft 504 kts 31°
2026-04-25 13:14 35.17890 -79.69194 36908 ft 498 kts 14°
2026-04-25 13:14 35.24711 -79.67912 36916 ft 495 kts
2026-04-25 13:15 35.31534 -79.67171 36928 ft 494 kts
2026-04-25 13:15 35.38423 -79.66493 36907 ft 495 kts
2026-04-25 13:16 35.45259 -79.65794 36910 ft 495 kts
2026-04-25 13:16 35.52147 -79.65067 36911 ft 496 kts
2026-04-25 13:17 35.59028 -79.64331 36914 ft 496 kts
2026-04-25 13:17 35.65906 -79.63595 36913 ft 496 kts
2026-04-25 13:18 35.72749 -79.62863 36917 ft 496 kts
2026-04-25 13:18 35.79634 -79.62125 36922 ft 496 kts
2026-04-25 13:19 35.86495 -79.61389 36903 ft 496 kts
2026-04-25 13:19 35.92257 -79.60770 36904 ft 496 kts
2026-04-25 13:20 36.00261 -79.59941 36905 ft 495 kts
2026-04-25 13:20 36.07155 -79.59601 36913 ft 495 kts
2026-04-25 13:21 36.14046 -79.59367 36902 ft 495 kts
2026-04-25 13:21 36.20947 -79.59080 36895 ft 495 kts
2026-04-25 13:22 36.27803 -79.58757 36888 ft 496 kts
2026-04-25 13:23 36.38159 -79.58252 36875 ft 497 kts
2026-04-25 13:23 36.45075 -79.57916 36873 ft 497 kts
2026-04-25 13:24 36.51986 -79.57582 36873 ft 497 kts
2026-04-25 13:24 36.58873 -79.57247 36883 ft 498 kts
2026-04-25 13:25 36.65811 -79.56911 36888 ft 498 kts
2026-04-25 13:25 36.72707 -79.56575 36886 ft 498 kts
2026-04-25 13:26 36.79667 -79.56234 36878 ft 499 kts 360°
2026-04-25 13:26 36.86610 -79.55895 36868 ft 499 kts 360°
2026-04-25 13:27 36.93514 -79.55557 36865 ft 499 kts 360°
2026-04-25 13:27 37.00456 -79.54999 36873 ft 502 kts
2026-04-25 13:28 37.07357 -79.53427 36865 ft 504 kts
2026-04-25 13:28 37.14247 -79.51674 36861 ft 505 kts
2026-04-25 13:29 37.21112 -79.49898 36866 ft 506 kts
2026-04-25 13:29 37.28030 -79.48120 36891 ft 506 kts
2026-04-25 13:30 37.38363 -79.45478 36890 ft 506 kts
2026-04-25 13:31 37.48737 -79.42822 36899 ft 506 kts
2026-04-25 13:31 37.55660 -79.41044 36877 ft 506 kts
2026-04-25 13:32 37.62519 -79.39278 36915 ft 506 kts
2026-04-25 13:32 37.69429 -79.37495 36938 ft 506 kts
2026-04-25 13:33 37.76330 -79.35711 36963 ft 506 kts
2026-04-25 13:33 37.83234 -79.33923 36966 ft 506 kts
2026-04-25 13:34 37.89923 -79.31101 36958 ft 515 kts 24°
2026-04-25 13:34 37.96239 -79.26714 36925 ft 519 kts 27°
2026-04-25 13:35 38.02494 -79.22057 36875 ft 520 kts 28°
2026-04-25 13:35 38.08698 -79.17411 36887 ft 520 kts 27°
2026-04-25 13:36 38.14960 -79.12748 36910 ft 520 kts 27°
2026-04-25 13:36 38.21224 -79.08096 36917 ft 521 kts 27°
2026-04-25 13:37 38.27451 -79.03465 36930 ft 520 kts 27°
2026-04-25 13:37 38.33711 -78.98800 36916 ft 520 kts 27°
2026-04-25 13:38 38.39975 -78.94121 36908 ft 521 kts 27°
2026-04-25 13:38 38.46192 -78.89467 36904 ft 521 kts 27°
2026-04-25 13:39 38.52452 -78.84770 36899 ft 521 kts 27°
2026-04-25 13:39 38.58697 -78.80077 36919 ft 521 kts 27°
2026-04-25 13:40 38.64915 -78.75394 36894 ft 521 kts 27°
2026-04-25 13:40 38.71177 -78.70669 36896 ft 521 kts 27°
2026-04-25 13:41 38.77417 -78.65950 36899 ft 520 kts 27°
2026-04-25 13:41 38.83620 -78.61249 36902 ft 520 kts 27°
2026-04-25 13:42 38.89845 -78.56522 36909 ft 520 kts 27°
2026-04-25 13:42 38.96073 -78.51783 36905 ft 520 kts 27°
2026-04-25 13:43 39.02307 -78.47028 36913 ft 520 kts 27°
2026-04-25 13:43 39.08485 -78.42309 36907 ft 519 kts 27°
2026-04-25 13:44 39.14710 -78.37543 36923 ft 519 kts 27°
2026-04-25 13:44 39.20839 -78.32553 36924 ft 523 kts 32°
2026-04-25 13:45 39.26688 -78.27029 36923 ft 524 kts 33°
2026-04-25 13:45 39.32561 -78.21421 36928 ft 524 kts 33°
2026-04-25 13:46 39.38465 -78.15899 36943 ft 523 kts 32°
2026-04-25 13:46 39.44358 -78.10442 36946 ft 523 kts 32°
2026-04-25 13:47 39.50290 -78.04948 36943 ft 523 kts 32°
2026-04-25 13:47 39.56220 -77.99440 36943 ft 523 kts 32°
2026-04-25 13:48 39.62089 -77.93972 36947 ft 523 kts 32°
2026-04-25 13:48 39.67991 -77.88462 36948 ft 521 kts 32°
2026-04-25 13:49 39.73889 -77.82944 36950 ft 520 kts 32°
2026-04-25 13:49 39.78964 -77.78863 36953 ft 510 kts 21°
2026-04-25 13:50 39.86675 -77.75419 36955 ft 502 kts 12°
2026-04-25 13:50 39.92272 -77.73353 36952 ft 502 kts 11°
2026-04-25 13:51 39.99002 -77.70932 36950 ft 502 kts 11°
2026-04-25 13:51 40.05741 -77.68488 36947 ft 502 kts 12°
2026-04-25 13:52 40.12438 -77.66033 36954 ft 502 kts 12°
2026-04-25 13:52 40.19168 -77.63555 36956 ft 502 kts 12°
2026-04-25 13:53 40.25900 -77.61070 36959 ft 502 kts 12°
2026-04-25 13:53 40.32592 -77.58596 36949 ft 500 kts 12°
2026-04-25 13:54 40.39290 -77.56113 36954 ft 498 kts 12°
2026-04-25 13:54 40.45923 -77.53650 36962 ft 498 kts 12°
2026-04-25 13:55 40.52616 -77.51161 36943 ft 497 kts 12°
2026-04-25 13:55 40.59281 -77.48677 36943 ft 497 kts 12°
2026-04-25 13:56 40.65902 -77.46204 36939 ft 497 kts 12°
2026-04-25 13:56 40.72568 -77.43709 36946 ft 498 kts 12°
2026-04-25 13:57 40.79247 -77.41423 36948 ft 494 kts
2026-04-25 13:57 40.85978 -77.39512 36946 ft 494 kts
2026-04-25 13:58 40.92673 -77.37613 36952 ft 495 kts
2026-04-25 13:58 40.99413 -77.35630 36953 ft 495 kts
2026-04-25 13:59 41.06132 -77.33615 36949 ft 495 kts
2026-04-25 13:59 41.12850 -77.31593 36951 ft 495 kts
2026-04-25 14:00 41.19580 -77.29565 36949 ft 495 kts
2026-04-25 14:00 41.26276 -77.27546 36954 ft 495 kts
2026-04-25 14:01 41.33013 -77.25511 36954 ft 496 kts
2026-04-25 14:01 41.39739 -77.23475 36949 ft 496 kts
2026-04-25 14:02 41.46428 -77.21445 36956 ft 495 kts
2026-04-25 14:02 41.53141 -77.19402 36946 ft 494 kts
2026-04-25 14:03 41.59845 -77.17360 36956 ft 493 kts
2026-04-25 14:03 41.66546 -77.15313 36957 ft 493 kts
2026-04-25 14:04 41.73203 -77.13276 36967 ft 493 kts
2026-04-25 14:04 41.79902 -77.11217 36967 ft 493 kts
2026-04-25 14:05 41.86593 -77.09159 36967 ft 493 kts
2026-04-25 14:05 41.93289 -77.07087 36971 ft 493 kts
2026-04-25 14:06 41.99943 -77.05022 36975 ft 492 kts
2026-04-25 14:06 42.06621 -77.02931 36981 ft 494 kts
2026-04-25 14:07 42.13112 -76.99564 36975 ft 503 kts 20°
2026-04-25 14:07 42.19433 -76.95410 36965 ft 505 kts 22°
2026-04-25 14:08 42.25667 -76.91171 36970 ft 506 kts 22°
2026-04-25 14:08 42.31962 -76.86891 36974 ft 506 kts 22°
2026-04-25 14:09 42.38252 -76.82627 36974 ft 505 kts 22°
2026-04-25 14:09 42.44532 -76.78370 36984 ft 504 kts 21°
2026-04-25 14:10 42.50747 -76.73948 36983 ft 507 kts 25°
2026-04-25 14:10 42.56789 -76.68940 36983 ft 509 kts 27°
2026-04-25 14:11 42.62812 -76.63866 36987 ft 509 kts 26°
2026-04-25 14:11 42.68839 -76.58888 36983 ft 510 kts 26°
2026-04-25 14:12 42.74942 -76.53900 36981 ft 510 kts 26°
2026-04-25 14:12 42.81037 -76.48917 36987 ft 510 kts 26°
2026-04-25 14:13 42.87100 -76.43942 36985 ft 507 kts 26°
2026-04-25 14:13 42.93142 -76.38972 36995 ft 507 kts 26°
2026-04-25 14:14 42.99174 -76.33998 37004 ft 507 kts 26°
2026-04-25 14:14 43.05166 -76.29047 37018 ft 507 kts 26°
2026-04-25 14:15 43.11220 -76.24040 37013 ft 506 kts 26°
2026-04-25 14:15 43.17597 -76.20307 37016 ft 489 kts
2026-04-25 14:16 43.24209 -76.18787 37014 ft 483 kts
2026-04-25 14:16 43.30890 -76.17740 37006 ft 482 kts
2026-04-25 14:17 43.37580 -76.16764 37005 ft 482 kts
2026-04-25 14:17 43.44222 -76.15774 37009 ft 483 kts
2026-04-25 14:18 43.50913 -76.14753 37002 ft 484 kts
2026-04-25 14:18 43.57623 -76.13720 37016 ft 483 kts
2026-04-25 14:19 43.64306 -76.12687 37000 ft 482 kts
2026-04-25 14:19 43.70927 -76.11666 37010 ft 482 kts
2026-04-25 14:20 43.76519 -76.10802 37014 ft 482 kts
2026-04-25 14:20 43.84281 -76.09600 37023 ft 483 kts
2026-04-25 14:21 43.90960 -76.08561 37027 ft 483 kts
2026-04-25 14:21 43.97649 -76.07517 37026 ft 483 kts
2026-04-25 14:22 44.04333 -76.06474 37027 ft 483 kts
2026-04-25 14:22 44.10975 -76.05435 37026 ft 483 kts
2026-04-25 14:23 44.17667 -76.04386 37028 ft 483 kts
2026-04-25 14:23 44.24330 -76.03339 37034 ft 484 kts
2026-04-25 14:24 44.31027 -76.02284 37045 ft 484 kts
2026-04-25 14:24 44.37734 -76.01285 37055 ft 483 kts
2026-04-25 14:25 44.44400 -76.00570 37053 ft 482 kts
2026-04-25 14:25 44.51116 -75.99893 37059 ft 484 kts
2026-04-25 14:26 44.57845 -75.99170 37064 ft 485 kts
2026-04-25 14:26 44.64546 -75.98421 37074 ft 486 kts
2026-04-25 14:27 44.71219 -75.96439 37097 ft 495 kts 17°
2026-04-25 14:27 44.77432 -75.92119 37078 ft 500 kts 26°
2026-04-25 14:28 44.83454 -75.87249 37081 ft 502 kts 27°
2026-04-25 14:28 44.89508 -75.82257 37100 ft 503 kts 27°
2026-04-25 14:29 44.95562 -75.77294 37087 ft 502 kts 27°
2026-04-25 14:29 45.01150 -75.71351 37108 ft 509 kts 41°
2026-04-25 14:30 45.06181 -75.64275 37103 ft 511 kts 43°
2026-04-25 14:30 45.13558 -75.53394 37120 ft 511 kts 43°
2026-04-25 14:31 45.18476 -75.46133 37108 ft 510 kts 43°
2026-04-25 14:31 45.23379 -75.38912 37130 ft 510 kts 43°
2026-04-25 14:32 45.28018 -75.31249 37110 ft 512 kts 48°
2026-04-25 14:32 45.32442 -75.23298 37121 ft 513 kts 49°
2026-04-25 14:33 45.36837 -75.15272 37123 ft 513 kts 49°
2026-04-25 14:33 45.41217 -75.07255 37132 ft 512 kts 48°
2026-04-25 14:34 45.45564 -74.99324 37133 ft 509 kts 47°
2026-04-25 14:34 45.49963 -74.91396 37138 ft 509 kts 47°
2026-04-25 14:35 45.54338 -74.83508 37137 ft 509 kts 47°
2026-04-25 14:35 45.58729 -74.75552 37143 ft 509 kts 47°
2026-04-25 14:36 45.63079 -74.67634 37149 ft 508 kts 47°
2026-04-25 14:36 45.67439 -74.59676 37151 ft 508 kts 48°
2026-04-25 14:37 45.71059 -74.53049 37163 ft 508 kts 47°
2026-04-25 14:37 45.75407 -74.45070 37154 ft 507 kts 47°
2026-04-25 14:38 45.79742 -74.37096 37159 ft 507 kts 47°
2026-04-25 14:38 45.84072 -74.29109 37156 ft 507 kts 47°
2026-04-25 14:39 45.88356 -74.21174 37163 ft 507 kts 47°
2026-04-25 14:39 45.92684 -74.13136 37162 ft 507 kts 47°
2026-04-25 14:40 45.96992 -74.05114 37168 ft 507 kts 47°
2026-04-25 14:40 46.01272 -73.97120 37170 ft 507 kts 47°
2026-04-25 14:41 46.05576 -73.89060 37177 ft 506 kts 47°
2026-04-25 14:41 46.09861 -73.81003 37180 ft 506 kts 47°
2026-04-25 14:42 46.13426 -73.74279 37183 ft 506 kts 47°
2026-04-25 14:42 46.18398 -73.64881 37183 ft 506 kts 47°
2026-04-25 14:43 46.22647 -73.56825 37190 ft 506 kts 47°
2026-04-25 14:43 46.26918 -73.48705 37187 ft 506 kts 48°
2026-04-25 14:44 46.31149 -73.40634 37189 ft 506 kts 48°
2026-04-25 14:44 46.35394 -73.32509 37191 ft 506 kts 48°
2026-04-25 14:45 46.39313 -73.23957 37193 ft 511 kts 54°
2026-04-25 14:45 46.42989 -73.15122 37190 ft 512 kts 54°
2026-04-25 14:46 46.46704 -73.06295 37194 ft 512 kts 53°
2026-04-25 14:46 46.50467 -72.97520 37191 ft 512 kts 53°
2026-04-25 14:47 46.53616 -72.90210 37201 ft 512 kts 53°
2026-04-25 14:47 46.58001 -72.80005 37183 ft 511 kts 54°
2026-04-25 14:48 46.61743 -72.71253 37186 ft 508 kts 54°
2026-04-25 14:48 46.65465 -72.62519 37186 ft 507 kts 54°
2026-04-25 14:49 46.69152 -72.53843 37192 ft 506 kts 54°
2026-04-25 14:49 46.72846 -72.45126 37188 ft 505 kts 54°
2026-04-25 14:50 46.76534 -72.36394 37187 ft 504 kts 54°
2026-04-25 14:50 46.80435 -72.27945 37182 ft 496 kts 45°
2026-04-25 14:51 46.85014 -72.20509 37184 ft 494 kts 43°
2026-04-25 14:51 46.89718 -72.13193 37181 ft 493 kts 43°
2026-04-25 14:52 46.94430 -72.05901 37179 ft 492 kts 43°
2026-04-25 14:52 46.98327 -71.99840 37174 ft 492 kts 43°
2026-04-25 14:53 47.03785 -71.91305 37159 ft 492 kts 44°
2026-04-25 14:53 47.08456 -71.83972 37168 ft 492 kts 44°
2026-04-25 14:54 47.13129 -71.76616 37151 ft 492 kts 44°
2026-04-25 14:54 47.17792 -71.69253 37149 ft 492 kts 45°
2026-04-25 14:55 47.22437 -71.61904 37137 ft 493 kts 45°
2026-04-25 14:55 47.27109 -71.54488 37128 ft 493 kts 45°
2026-04-25 14:56 47.31774 -71.47061 37120 ft 494 kts 45°
2026-04-25 14:56 47.36445 -71.39606 37117 ft 494 kts 46°
2026-04-25 14:57 47.41073 -71.32197 37105 ft 494 kts 46°
2026-04-25 14:57 47.45741 -71.24703 37105 ft 494 kts 46°
2026-04-25 14:58 47.50393 -71.17218 37106 ft 494 kts 46°
2026-04-25 14:58 47.55038 -71.09718 37119 ft 493 kts 46°
2026-04-25 14:59 47.59645 -71.02258 37113 ft 492 kts 46°
2026-04-25 14:59 47.64265 -70.94761 37114 ft 492 kts 46°
2026-04-25 15:00 47.68864 -70.87273 37125 ft 492 kts 46°
2026-04-25 15:00 47.73483 -70.79730 37162 ft 491 kts 47°
2026-04-25 15:01 47.78072 -70.72217 37160 ft 491 kts 47°
2026-04-25 15:01 47.82632 -70.64728 37174 ft 491 kts 47°
2026-04-25 15:02 47.87224 -70.57169 37177 ft 492 kts 47°
2026-04-25 15:02 47.91819 -70.49584 37167 ft 492 kts 47°
2026-04-25 15:03 47.96376 -70.42037 37174 ft 493 kts 47°
2026-04-25 15:03 48.00962 -70.34421 37179 ft 493 kts 47°
2026-04-25 15:04 48.05559 -70.26765 37180 ft 493 kts 47°
2026-04-25 15:04 48.10104 -70.19172 37174 ft 492 kts 47°
2026-04-25 15:05 48.14675 -70.11516 37173 ft 492 kts 47°
2026-04-25 15:06 48.21508 -70.00027 37179 ft 492 kts 48°
2026-04-25 15:06 48.26042 -69.92376 37173 ft 492 kts 48°
2026-04-25 15:07 48.30591 -69.84678 37186 ft 492 kts 48°
2026-04-25 15:07 48.35135 -69.76966 37169 ft 491 kts 48°
2026-04-25 15:08 48.39640 -69.69298 37173 ft 491 kts 48°
2026-04-25 15:08 48.44159 -69.61583 37175 ft 491 kts 48°
2026-04-25 15:09 48.48674 -69.53853 37174 ft 490 kts 49°
2026-04-25 15:09 48.55432 -69.42242 37170 ft 490 kts 49°
2026-04-25 15:10 48.59984 -69.34572 37162 ft 490 kts 47°
2026-04-25 15:11 48.66877 -69.23240 37179 ft 489 kts 47°
2026-04-25 15:11 48.71471 -69.15626 37176 ft 490 kts 47°
2026-04-25 15:12 48.78343 -69.04148 37164 ft 489 kts 48°
2026-04-25 15:12 48.81379 -68.99060 37170 ft 489 kts 48°
2026-04-25 15:13 48.89727 -68.85016 37161 ft 488 kts 48°
2026-04-25 15:14 48.94273 -68.77339 37160 ft 488 kts 48°
2026-04-25 15:14 48.98822 -68.69633 37158 ft 488 kts 48°
2026-04-25 15:15 49.03334 -68.61969 37159 ft 488 kts 48°
2026-04-25 15:15 49.07864 -68.54248 37159 ft 488 kts 48°
2026-04-25 15:16 49.12393 -68.46509 37156 ft 488 kts 48°
2026-04-25 15:16 49.19147 -68.34922 37157 ft 488 kts 49°
2026-04-25 15:17 49.25918 -68.23254 37160 ft 488 kts 49°
2026-04-25 15:18 49.30427 -68.15456 37169 ft 487 kts 49°
2026-04-25 15:18 49.37134 -68.03813 37144 ft 487 kts 49°
2026-04-25 15:19 49.40136 -67.98584 37143 ft 487 kts 49°
2026-04-25 15:19 49.46075 -67.88209 37143 ft 487 kts 49°
2026-04-25 15:20 49.50544 -67.80374 37142 ft 487 kts 49°
2026-04-25 15:20 49.55006 -67.72526 37140 ft 487 kts 49°
2026-04-25 15:21 49.59473 -67.64650 37142 ft 487 kts 49°
2026-04-25 15:21 49.63939 -67.56751 37143 ft 487 kts 49°
2026-04-25 15:22 49.68370 -67.48890 37140 ft 488 kts 49°
2026-04-25 15:22 49.72818 -67.40972 37135 ft 488 kts 49°
2026-04-25 15:23 49.76523 -67.34360 37132 ft 488 kts 49°
2026-04-25 15:23 49.80971 -67.26399 37133 ft 488 kts 50°
2026-04-25 15:24 49.85403 -67.18442 37135 ft 487 kts 50°
2026-04-25 15:24 49.89082 -67.11821 37135 ft 487 kts 50°
2026-04-25 15:25 49.94233 -67.02519 37130 ft 487 kts 50°
2026-04-25 15:25 49.98649 -66.94518 37122 ft 487 kts 50°
2026-04-25 15:26 50.03039 -66.86540 37126 ft 487 kts 50°
2026-04-25 15:26 50.07439 -66.78519 37123 ft 486 kts 50°
2026-04-25 15:27 50.11834 -66.70484 37116 ft 486 kts 50°
2026-04-25 15:28 50.18387 -66.58454 37109 ft 486 kts 50°
2026-04-25 15:28 50.22759 -66.50397 37114 ft 485 kts 50°
2026-04-25 15:29 50.27092 -66.42387 37116 ft 485 kts 50°
2026-04-25 15:29 50.31452 -66.34305 37116 ft 485 kts 51°
2026-04-25 15:30 50.35791 -66.26233 37127 ft 483 kts 51°
2026-04-25 15:30 50.40123 -66.18148 37113 ft 483 kts 51°
2026-04-25 15:31 50.44427 -66.10094 37109 ft 484 kts 51°
2026-04-25 15:31 50.48749 -66.01978 37107 ft 484 kts 51°
2026-04-25 15:32 50.53028 -65.93917 37109 ft 481 kts 50°
2026-04-25 15:32 50.57301 -65.85846 37112 ft 479 kts 51°
2026-04-25 15:33 50.63695 -65.73720 37117 ft 479 kts 51°
2026-04-25 15:33 50.67946 -65.65625 37125 ft 479 kts 51°
2026-04-25 15:34 50.72194 -65.57509 37128 ft 479 kts 51°
2026-04-25 15:34 50.75722 -65.50749 37134 ft 479 kts 51°
2026-04-25 15:35 50.82774 -65.37188 37132 ft 480 kts 51°
2026-04-25 15:36 50.89092 -65.24978 37147 ft 480 kts 51°
2026-04-25 15:36 50.93315 -65.16784 37145 ft 480 kts 51°
2026-04-25 15:37 50.97533 -65.08575 37133 ft 479 kts 51°
2026-04-25 15:37 51.01748 -65.00344 37135 ft 480 kts 51°
2026-04-25 15:38 51.05950 -64.92113 37142 ft 479 kts 51°
2026-04-25 15:38 51.10125 -64.83906 37151 ft 480 kts 52°
2026-04-25 15:39 51.14317 -64.75640 37152 ft 480 kts 51°
2026-04-25 15:39 51.18517 -64.67335 37139 ft 480 kts 52°
2026-04-25 15:40 51.22000 -64.60425 37140 ft 480 kts 52°
2026-04-25 15:40 51.26861 -64.50751 37145 ft 480 kts 52°
2026-04-25 15:41 51.31032 -64.42420 37157 ft 480 kts 52°
2026-04-25 15:41 51.35199 -64.34069 37156 ft 480 kts 52°
2026-04-25 15:42 51.39340 -64.25746 37170 ft 479 kts 52°
2026-04-25 15:42 51.43479 -64.17401 37159 ft 477 kts 52°
2026-04-25 15:43 51.47607 -64.09049 37167 ft 477 kts 52°
2026-04-25 15:43 51.51694 -64.00756 37175 ft 477 kts 52°
2026-04-25 15:44 51.55808 -63.92379 37176 ft 477 kts 52°
2026-04-25 15:44 51.59909 -63.83999 37167 ft 476 kts 53°
2026-04-25 15:45 51.64001 -63.75612 37168 ft 476 kts 53°
2026-04-25 15:45 51.67395 -63.68634 37167 ft 476 kts 53°
2026-04-25 15:46 51.72138 -63.58851 37168 ft 476 kts 53°
2026-04-25 15:46 51.76215 -63.50411 37168 ft 476 kts 53°
2026-04-25 15:47 51.80287 -63.41957 37159 ft 476 kts 53°
2026-04-25 15:47 51.84328 -63.33538 37159 ft 476 kts 53°
2026-04-25 15:48 51.88383 -63.25061 37165 ft 476 kts 53°
2026-04-25 15:48 51.92439 -63.16554 37165 ft 476 kts 53°
2026-04-25 15:49 51.96458 -63.08096 37167 ft 476 kts 53°
2026-04-25 15:49 52.00508 -62.99546 37166 ft 476 kts 53°
2026-04-25 15:50 52.04515 -62.91057 37160 ft 476 kts 53°
2026-04-25 15:50 52.08550 -62.82481 37172 ft 475 kts 53°
2026-04-25 15:51 52.11874 -62.75396 37163 ft 473 kts 53°
2026-04-25 15:51 52.16507 -62.65486 37175 ft 472 kts 54°
2026-04-25 15:52 52.20482 -62.56953 37168 ft 472 kts 54°
2026-04-25 15:52 52.24435 -62.48438 37163 ft 472 kts 54°
2026-04-25 15:53 52.28390 -62.39893 37165 ft 470 kts 54°
2026-04-25 15:53 52.32324 -62.31363 37170 ft 469 kts 54°
2026-04-25 15:54 52.36227 -62.22873 37169 ft 469 kts 54°
2026-04-25 15:54 52.40147 -62.14315 37166 ft 469 kts 54°
2026-04-25 15:55 52.44063 -62.05738 37166 ft 470 kts 54°
2026-04-25 15:55 52.47976 -61.97143 37158 ft 470 kts 54°
2026-04-25 15:56 52.51888 -61.88519 37163 ft 470 kts 54°
2026-04-25 15:56 52.53814 -61.84259 37047 ft 469 kts 54°
2026-04-25 15:56 52.55758 -61.79955 36872 ft 469 kts 54°
2026-04-25 15:57 52.57702 -61.75644 36708 ft 469 kts 54°
2026-04-25 15:57 52.59647 -61.71323 36543 ft 468 kts 54°
2026-04-25 15:57 52.61586 -61.67009 36376 ft 468 kts 54°
2026-04-25 15:57 52.63517 -61.62707 36216 ft 467 kts 54°
2026-04-25 15:58 52.67354 -61.54140 36161 ft 467 kts 54°
2026-04-25 15:58 52.71212 -61.45491 36162 ft 467 kts 54°
2026-04-25 15:59 52.75059 -61.36832 36161 ft 467 kts 55°
2026-04-25 15:59 52.78897 -61.28169 36167 ft 466 kts 55°
2026-04-25 16:00 52.81429 -61.22437 36170 ft 465 kts 55°
2026-04-25 16:00 52.86506 -61.10902 36162 ft 465 kts 55°
2026-04-25 16:01 52.90311 -61.02221 36159 ft 465 kts 55°
2026-04-25 16:01 52.93471 -60.94988 36181 ft 465 kts 55°